KF0GNS-15 Weather Reports


time (UTC)temp
C
wind
direction
speed
KPH
gust
KPH
rain 1hr
cm
rain 24hr
cm
rain mn
cm
humidity
%
barometer
mb
20260507222325 21 152 4.8 11.3 0.00 0.00 0.00 41 1012.2
20260507220737 21 265 4.8 9.7 0.00 0.00 0.00 45 1012.1
20260507215148 21 237 1.6 9.7 0.00 0.00 0.00 44 1012.3
20260507212010 21 257 6.4 12.9 0.00 0.00 0.00 46 1012.6
20260507210632 20 179 6.4 22.5 0.00 0.00 0.00 45 1013.3
20260507204830 20 179 6.4 22.5 0.00 0.00 0.00 45 1013.3
20260507203242 20 294 4.8 24.1 0.00 0.00 0.00 46 1013.5
20260507201652 20 348 8.0 12.9 0.00 0.00 0.00 45 1013.8
20260507200103 20 144 14.5 20.9 0.00 0.00 0.00 47 1014.1
20260507191336 19 162 16.1 22.5 0.00 0.00 0.00 46 1014.9
20260507185747 18 316 9.7 14.5 0.00 0.00 0.00 49 1014.9
20260507184158 18 224 11.3 11.3 0.00 0.00 0.00 49 1015.2
20260507182610 18 200 12.9 19.3 0.00 0.00 0.00 49 1015.2
20260507181527 18 296 1.6 16.1 0.00 0.00 0.00 50 1015.6
20260507181020 18 296 1.6 16.1 0.00 0.00 0.00 50 1015.6
20260507175512 18 219 9.7 12.9 0.00 0.00 0.00 51 1016.0
20260507175431 18 219 9.7 12.9 0.00 0.00 0.00 51 1016.0
20260507173842 18 213 3.2 14.5 0.00 0.00 0.00 51 1016.4
20260507172828 17 291 8.0 12.9 0.00 0.00 0.00 51 1016.6
20260507172253 17 291 8.0 12.9 0.00 0.00 0.00 51 1016.6
20260507170705 17 269 16.1 19.3 0.00 0.00 0.00 52 1016.8
20260507165115 17 255 11.3 17.7 0.00 0.00 0.00 53 1017.0
20260507163526 17 242 14.5 14.5 0.00 0.00 0.00 54 1017.3
20260507161937 16 215 3.2 19.3 0.00 0.00 0.00 53 1017.4
20260507160348 17 300 8.0 25.7 0.00 0.00 0.00 55 1017.5
20260507154759 16 241 1.6 19.3 0.00 0.00 0.00 55 1017.6
20260507153211 16 186 3.2 12.9 0.00 0.00 0.00 59 1017.8
20260507151621 15 347 3.2 16.1 0.00 0.00 0.00 59 1017.8
20260507150032 15 146 3.2 8.0 0.00 0.00 0.00 61 1018.1
20260507144443 14 252 1.6 20.9 0.00 0.00 0.00 62 1018.2
20260507142854 13 197 4.8 9.7 0.00 0.00 0.00 64 1018.4
20260507135717 12 229 11.3 14.5 0.00 0.00 0.00 70 1018.5
20260507132538 10 238 4.8 4.8 0.00 0.00 0.00 75 1018.4
20260507130951 10 213 6.4 6.4 0.00 0.00 0.00 77 1018.6
20260507125400 9 248 1.6 9.7 0.00 0.00 0.00 79 1018.7
20260507123812 8 257 3.2 6.4 0.00 0.00 0.00 81 1018.8
20260507123206 7 242 1.6 11.3 0.00 0.00 0.00 83 1018.8
20260507122222 7 242 1.6 11.3 0.00 0.00 0.00 83 1018.8
20260507120635 6 221 3.2 8.0 0.00 0.00 0.00 84 1018.7
20260507115044 6 226 1.6 4.8 0.00 0.00 0.00 85 1018.7
20260507111906 5 233 1.6 6.4 0.00 0.00 0.00 87 1018.6
20260507110317 5 360 0.0 1.6 0.00 0.00 0.00 88 1018.5
20260507104728 5 360 0.0 0.0 0.00 0.00 0.00 87 1018.5
20260507101550 5 360 0.0 0.0 0.00 0.00 0.00 87 1018.7
20260507100001 5 360 0.0 0.0 0.00 0.00 0.00 87 1018.7
20260507094414 5 360 0.0 0.0 0.00 0.00 0.00 88 1018.7
20260507092823 5 360 0.0 0.0 0.00 0.00 0.00 87 1019.0
20260507091234 5 360 0.0 0.0 0.00 0.00 0.00 87 1018.9
20260507085646 5 360 0.0 0.0 0.00 0.00 0.00 85 1019.0
20260507084059 5 360 0.0 0.0 0.00 0.00 0.00 85 1019.2
20260507082507 5 360 0.0 0.0 0.00 0.00 0.00 84 1019.2
20260507080918 6 360 0.0 0.0 0.00 0.00 0.00 84 1019.2
20260507075330 6 360 0.0 0.0 0.00 0.00 0.00 83 1019.2
20260507073743 6 360 0.0 0.0 0.00 0.00 0.00 82 1019.2
20260507072152 6 360 0.0 0.0 0.00 0.00 0.00 81 1019.3
20260507065013 7 360 0.0 0.0 0.00 0.00 0.00 77 1019.6
20260507063424 7 360 0.0 0.0 0.00 0.00 0.00 75 1019.8
20260507061837 8 360 0.0 0.0 0.00 0.00 0.00 73 1019.8
20260507060247 8 360 0.0 0.0 0.00 0.00 0.00 72 1020.0
20260507053110 8 360 0.0 0.0 0.00 0.00 0.00 73 1019.9
20260507051521 7 360 0.0 0.0 0.00 0.05 0.00 76 1019.8
20260507045930 6 360 0.0 0.0 0.00 0.08 0.05 82 1019.8
20260507044343 6 360 0.0 0.0 0.00 0.08 0.05 85 1019.9
20260507042752 6 360 0.0 0.0 0.00 0.08 0.05 86 1019.9
20260507041203 6 360 0.0 0.0 0.00 0.08 0.05 84 1019.8
20260507035614 6 360 0.0 0.0 0.00 0.08 0.05 84 1020.1
20260507034027 6 360 0.0 0.0 0.00 0.08 0.05 81 1020.1
20260507032438 7 360 0.0 0.0 0.00 0.08 0.05 81 1020.1
20260507030847 7 360 0.0 0.0 0.00 0.08 0.05 79 1020.1
20260507025258 7 360 0.0 0.0 0.00 0.08 0.05 76 1020.0
20260507023710 8 360 0.0 0.0 0.00 0.08 0.05 74 1019.8
20260507022121 9 360 0.0 0.0 0.00 0.08 0.05 70 1019.6
20260507020531 10 360 0.0 0.0 0.00 0.08 0.05 66 1019.5
20260507014942 11 360 0.0 0.0 0.00 0.08 0.05 61 1019.4
20260507013354 12 360 0.0 0.0 0.00 0.08 0.05 54 1019.4
20260507011804 13 360 0.0 0.0 0.00 0.08 0.05 47 1019.3
20260507010216 13 360 0.0 0.0 0.00 0.08 0.05 43 1019.2
20260507004627 14 360 0.0 0.0 0.00 0.08 0.05 39 1019.1
20260507003122 15 360 0.0 0.0 0.00 0.08 0.05 36 1019.2
20260507003040 15 360 0.0 0.0 0.00 0.08 0.05 36 1019.2
20260507001844 16 329 3.2 8.0 0.00 0.08 0.05 33 1019.2
20260507001448 16 329 3.2 8.0 0.00 0.08 0.05 33 1019.2
20260506235859 16 328 1.6 1.6 0.00 0.08 0.05 34 1019.2
20260506234311 16 360 0.0 6.4 0.00 0.08 0.05 34 1019.4
20260506232724 16 328 1.6 4.8 0.00 0.08 0.05 33 1019.3
20260506231132 17 283 9.7 9.7 0.00 0.08 0.05 31 1019.3
20260506225544 17 347 1.6 11.3 0.00 0.08 0.05 32 1019.4